Tracking 18840 objects as of 19-November-2017
HD Live streaming from Space Station
objects crossing your sky now

COSMOS 2334

Track COSMOS 2334 now!
10-day predictions
COSMOS 2334 is classified as:


NORAD ID: 24304
Int'l Code: 1996-052A
Perigee: 972.2 km
Apogee: 1,015.8 km
Inclination: 82.9 °
Period: 104.8 minutes
Semi major axis: 7365 km
RCS: 2.1605 m2 (large)
Launch date: September 5, 1996
Source: Commonwealth of Independent States (former USSR) (CIS)
Launch site: PLESETSK MISSILE AND SPACE COMPLEX (PKMTR)
aabbcc
Your satellite tracking list
Your tracking list is empty




NASA's NSSDC Master Catalog

Two Line Element Set (TLE):
1 24304U 96052A   17322.34137566  .00000040  00000-0  27368-4 0  9999
2 24304  82.9363 238.8337 0029543 342.5495 136.9726 13.73546283 62773
Source of the keplerian elements: AFSPC